Hourly Data Report for October 29, 2016

All times are specified in Local Standard Time (LST). Add 1 hour to adjust for Daylight Saving Time where and when it is observed.

QIKIQTARJUAQ A
NUNAVUT

67°32'48.000" N
64°01'54.000" W
5.50 m
2400577
YVM

Download Data

Hourly Data (October 2016)
Hourly Data Report for October 29, 2016
Temp Definition
°C
Dew Point Temp Definition
°C
Rel Hum Definition
%
Wind Dir Definition
10's deg

Wind Spd Definition
km/h
Visibility Definition
km
Stn Press Definition
kPa
Hmdx Definition


Wind Chill Definition


Weather Definition


TIME
00:00 Legend Double Dagger -2.5 -7.2 70 20 17 16.1 100.70   -8 LegendNANA
01:00 Legend Double Dagger -1.7 -7.2 66 LegendMM 9 16.1 100.66   -5 LegendNANA
02:00 Legend Double Dagger -1.0 -5.7 71 15 37 16.1 100.58   -8 LegendNANA
03:00 Legend Double Dagger -0.9 -5.6 70 16 26 16.1 100.57   -7 LegendNANA
04:00 Legend Double Dagger -0.6 -5.5 69 16 32 16.1 100.52   -7 LegendNANA
05:00 Legend Double Dagger -0.8 -5.4 71 16 24 16.1 100.47   -7 LegendNANA
06:00 Legend Double Dagger -0.6 -4.3 76 15 22 16.1 100.41   -6 LegendNANA
07:00 Legend Double Dagger -0.5 -4.2 76 15 24 16.1 100.34   -6 LegendNANA
08:00 Legend Double Dagger -0.3 -3.2 81 15 37 16.1 100.22   -8 LegendNANA
09:00 Legend Double Dagger -0.3 -1.9 89 15 34 16.1 100.19   -7 LegendNANA
10:00 Legend Double Dagger -0.3 -1.7 90 13 43 16.1 100.10   -8 LegendNANA
11:00 Legend Double Dagger -0.2 -1.6 90 13 48 16.1 100.02   -8 LegendNANA
12:00 Legend Double Dagger -0.2 -1.6 90 13 48 14.5 99.98   -8 LegendNANA
13:00 Legend Double Dagger -0.1 -1.5 90 13 52 16.1 99.92   -8 LegendNANA
14:00 Legend Double Dagger 0.0 -1.4 90 13 46 16.1 99.87   -8 LegendNANA
15:00 Legend Double Dagger 0.2 -1.4 89 13 48 16.1 99.85     LegendNANA
16:00 Legend Double Dagger 0.1 -1.4 90 13 45 16.1 99.84     LegendNANA
17:00 Legend Double Dagger 0.2 -1.3 90 13 45 16.1 99.79     LegendNANA
18:00 Legend Double Dagger 0.4 -1.1 90 13 45 16.1 99.76     LegendNANA
19:00 Legend Double Dagger 0.5 -0.8 91 13 54 16.1 99.63     LegendNANA
20:00 Legend Double Dagger 0.6 -0.9 90 13 41 16.1 99.65     LegendNANA
21:00 Legend Double Dagger 0.4 -0.9 91 15 34 16.1 99.61     LegendNANA
22:00 Legend Double Dagger 0.2 -1.3 90 14 30 16.1 99.53     LegendNANA
23:00 Legend Double Dagger 0.2 -1.8 86 15 13 16.1 99.53     LegendNANA

Notes on Data Quality.

Legend

  • E = Estimated
  • M = Missing
  • NA = Not Available
  • ‡ = Partner data that is not subject to review by the National Climate Archives
Date modified: